STARLINK-30495, 57968

Orbit data source: Space-Track

STARLINK-30495, 57968 is a payload satellite owned by SpaceX/Seattle (US) in LEO that was launched on Sat, 30 Sep 2023 UTC via an FALCON 9 launch vehicle from the Air Force Eastern Test Range (AFETR). Payload-class satellites include a variety of spacecraft equipped with specific instruments for various scientific and technological missions. These include communications satellites like Starlink; space stations such as the ISS; scientific satellites like the Hubble; Earth observation satellites from companies like Planet Labs, Umbra, and HawkEye 360; GPS; miniature CubeSats for education and research; and military/defense satellites.

Loading next visibility...
Identifier
57968, 2023-151E
Orbit
LEO
Country
Flag of USUS
Related business
Manufacturer
SpaceX/Seattle
Mission
Operational Commercial Communications
Bus & Motor
STARLINK V2M, Unknown motor
Mass
730 kg wet, ~700 kg dry
Launch date (UTC)
2023-09-30 (3 years ago)
Launch vehicle
FALCON 9
Launch site
Air Force Eastern Test Range (AFETR)
Object type
Payload
Rocket body
Debris
Shape & HBR
Box + 2 Pan, 17.7 m
Radar Cross Section
33.884 m², Large (>1 m²)

Expand to show TLE details & history
Last TLE update: 13 hours ago

TLE from 13 hours ago
0 STARLINK-30495
1 57968U 23151E   26192.84165078 -.00000347  00000-0 -30909-5 0  9998
2 57968  43.0020 354.8782 0000679 253.3612 106.7165 15.27577078154754
Epoch: 2026-07-11T20:11Z
TLE epoch observation values (Epoch: 2026-07-11T20:11:58.627Z)
Latitude
-0.00002°
Longitude
122.13482°
Altitude
482.967 km
Speed
7.626 km/s
True Right ascension
23h 39m 30s
True Declination
0° 00' 00"
Sunlit
Object was in full shadow at epoch
Visualization orbit readout
Latitude
Unknown
Longitude
Unknown
Altitude
Unknown
Speed
Unknown
Apparent Right ascension
Unknown
Apparent Declination
Unknown
Sunlit
N/A
Visualization observer readout
Local Sidereal Time
21:55:05
Azimuth
Unknown
Elevation
Unknown
Doppler factor
Unknown
Orbital elements
Apogee altitude
485.469 km
Perigee altitude
484.537 km
Semi-major axis
6,863.14 km
Eccentricity
0.00007
Inclination
43.002°
RAAN
354.8782°
Arg. of periapsis
253.3612°
True anomaly
106.72395°
Mean anomaly
106.7165°
Eccentric anomaly
106.72023°
Mean motion
3.81732 °/min
Orbital period
94.31 mins
BSTAR
-0.0000030909
Loading maneuver chart data...
Computing Atmospheric mass density...
Loading historical data...
Loading historical data...
Loading historical data...
Loading historical data...
Loading historical data...
Loading historical data...
Loading historical data...

Documentation

Showing up to 5 results
|